Regional Weather Roundup
Issued by NWS

Home | Current Version | Previous Version | Text Only | Print | Product List | Glossary On
Versions: 1 2 3 4 5 6 7 8 9 10 11 12 13 14 15 16 17 18 19 20 21 22 23 24 25 26 27 28 29 30 31 32 33 34 35 36 37 38 39 40 41 42 43 44 45 46 47 48 49 50
000
ASUS45 KREV 021110
RWRNV
NEVADA REGIONAL WEATHER ROUNDUP
NATIONAL WEATHER SERVICE RENO NV
400 AM PDT TUE SEP 02 2014

NOTE: "FAIR" INDICATES FEW OR NO CLOUDS BELOW 12,000 FEET WITH NO
SIGNIFICANT WEATHER AND/OR OBSTRUCTIONS TO VISIBILITY.

NVZ001-003-004-021200-
WESTERN NEVADA

CITY           SKY/WX    TMP DP  RH WIND       PRES   REMARKS
RENO           CLEAR     61  39  44 CALM      30.01S
CARSON CITY    FAIR      55  34  44 CALM      30.04S
MINDEN           N/A    N/A N/A N/A MISG        N/A
SLIDE MTN        N/A     55  32  41 S1          N/A
PYRAMID LAKE     N/A     72 N/A N/A W6          N/A
FALLON         CLEAR     55  28  35 CALM      29.97S
LOVELOCK       CLEAR     50  27  40 SE3       29.97S
HAWTHORNE      CLEAR     64  32  29 CALM      29.99S
$$

NVZ002-CAZ072-073-021200-
NORTHERN AND CENTRAL SIERRA

CITY           SKY/WX    TMP DP  RH WIND       PRES   REMARKS
S. LAKE TAHOE  CLEAR     47  37  68 S3        30.13S
TRUCKEE        CLEAR     45  37  76 CALM      30.11F
SQUAW VLY 8000 NOT AVBL
BLUE CANYON    CLEAR     68  36  30 CALM      30.07S
MAMMOTH LAKES  FAIR      45  27  49 N3        30.20S
BRIDGEPORT     FAIR      45  28  51 CALM      30.16F
$$

NVZ030-031-036-021200-
NORTHERN NEVADA

CITY           SKY/WX    TMP DP  RH WIND       PRES   REMARKS
ELKO           CLEAR     50  30  46 NE3       30.07R
WINNEMUCCA     CLEAR     46  26  45 SE8       30.02S
WENDOVER       CLEAR     61  36  39 W3        30.01F
$$

NVZ035-037-021200-
CENTRAL NEVADA

CITY           SKY/WX    TMP DP  RH WIND       PRES   REMARKS
ELY            CLEAR     46  33  60 S9        30.14S
EUREKA           N/A     52  29  41 S6        30.10F
$$

NVZ013-014-021200-
SOUTH CENTRAL NEVADA

CITY           SKY/WX    TMP DP  RH WIND       PRES   REMARKS
TONOPAH        CLEAR     57  23  26 N9        30.07S
$$

NVZ017-020-022-021200-
SOUTHERN NEVADA

CITY           SKY/WX    TMP DP  RH WIND       PRES   REMARKS
LAS VEGAS      CLEAR     81  35  19 S8        29.79R
N. LAS VEGAS   CLEAR     79  39  23 NW5       29.82R
NELLIS AFB     CLEAR     80  38  21 NE7       29.80R
HENDERSON      CLEAR     78  34  20 S8        29.85S
MERCURY        CLEAR     70  30  22 CALM      29.90S
$$


USA.gov is the U.S. government's official web portal to all federal, state and local government web resources and services.